DLH695 WSSS-WIII

Flight info

Callsign DLH695
Flight time N/A
Altitude 35000
Route ANITO7A ANITO B470 BUNIK
Aircraft A346/H-SDE2E3FGHIJ3J4J5M1RWXY/LB1D1

Departure

Time N/A
Airport Singapore Changi Airport (WSSS)

Arrival

Time 2026-04-30 15:13
Airport Soekarno-Hatta International Airport (WIII)
Time Latitude Longitude Altitude Speed Heading
2026-04-30 14:14 0.02463 104.73313 34921 ft 481 kts 155°
2026-04-30 14:14 -0.12036 104.79594 34926 ft 480 kts 155°
2026-04-30 14:15 -0.19668 104.82907 34922 ft 480 kts 155°
2026-04-30 14:15 -0.26342 104.85927 34921 ft 479 kts 152°
2026-04-30 14:16 -0.32648 104.89562 34921 ft 477 kts 145°
2026-04-30 14:16 -0.38681 104.93636 34921 ft 477 kts 144°
2026-04-30 14:17 -0.44697 104.97732 34921 ft 477 kts 144°
2026-04-30 14:17 -0.50745 105.01834 34921 ft 476 kts 144°
2026-04-30 14:18 -0.56756 105.05905 34921 ft 476 kts 144°
2026-04-30 14:18 -0.65738 105.11983 34921 ft 476 kts 144°
2026-04-30 14:19 -0.74801 105.18117 34926 ft 476 kts 144°
2026-04-30 14:20 -0.80784 105.22166 34937 ft 476 kts 144°
2026-04-30 14:20 -0.89833 105.28290 34945 ft 476 kts 144°
2026-04-30 14:21 -0.95851 105.32362 34947 ft 476 kts 144°
2026-04-30 14:22 -1.04842 105.38449 34948 ft 475 kts 144°
2026-04-30 14:22 -1.13873 105.44562 34948 ft 475 kts 144°
2026-04-30 14:23 -1.25871 105.52683 34948 ft 475 kts 144°
2026-04-30 14:24 -1.34890 105.58788 34948 ft 475 kts 144°
2026-04-30 14:25 -1.46877 105.66903 34950 ft 475 kts 144°
2026-04-30 14:26 -1.55879 105.72998 34948 ft 475 kts 144°
2026-04-30 14:27 -1.64858 105.79079 34948 ft 475 kts 144°
2026-04-30 14:27 -1.70836 105.83128 34948 ft 475 kts 144°
2026-04-30 14:28 -1.79867 105.89244 34948 ft 475 kts 144°
2026-04-30 14:28 -1.85824 105.93279 34948 ft 475 kts 144°
2026-04-30 14:29 -1.96840 106.00741 34948 ft 475 kts 144°
2026-04-30 14:31 -2.13023 106.11206 34948 ft 477 kts 151°
2026-04-30 14:31 -2.23248 106.15144 34948 ft 481 kts 162°
2026-04-30 14:32 -2.34048 106.17220 34948 ft 483 kts 168°
2026-04-30 14:33 -2.41354 106.18436 34948 ft 483 kts 168°
2026-04-30 14:33 -2.52210 106.20277 34948 ft 484 kts 168°
2026-04-30 14:34 -2.59526 106.21527 34948 ft 484 kts 168°
2026-04-30 14:34 -2.66775 106.22768 34948 ft 484 kts 168°
2026-04-30 14:35 -2.77700 106.24638 34948 ft 485 kts 168°
2026-04-30 14:36 -2.84961 106.25880 34948 ft 485 kts 168°
2026-04-30 14:36 -2.92282 106.27134 34948 ft 485 kts 168°
2026-04-30 14:37 -2.99602 106.28388 34948 ft 486 kts 168°
2026-04-30 14:37 -3.06888 106.29635 34948 ft 486 kts 168°
2026-04-30 14:38 -3.14225 106.30892 34948 ft 487 kts 168°
2026-04-30 14:38 -3.21493 106.32138 34948 ft 487 kts 168°
2026-04-30 14:39 -3.28829 106.33395 34948 ft 487 kts 168°
2026-04-30 14:39 -3.36130 106.34646 34948 ft 487 kts 168°
2026-04-30 14:40 -3.47121 106.36530 34948 ft 487 kts 168°
2026-04-30 14:40 -3.54480 106.37791 34948 ft 488 kts 168°
2026-04-30 14:41 -3.61791 106.39043 34951 ft 488 kts 168°
2026-04-30 14:41 -3.69133 106.40383 34959 ft 488 kts 167°
2026-04-30 14:42 -3.76403 106.41757 34966 ft 488 kts 167°
2026-04-30 14:42 -3.83758 106.43142 34971 ft 488 kts 167°
2026-04-30 14:43 -3.91043 106.44508 34973 ft 488 kts 167°
2026-04-30 14:43 -3.98371 106.45879 34974 ft 488 kts 167°
2026-04-30 14:44 -4.05684 106.47249 34974 ft 488 kts 167°
2026-04-30 14:44 -4.12996 106.48618 34974 ft 488 kts 167°
2026-04-30 14:45 -4.20299 106.49985 34974 ft 488 kts 167°
2026-04-30 14:45 -4.27592 106.51350 34974 ft 488 kts 167°
2026-04-30 14:46 -4.34901 106.52720 34974 ft 488 kts 167°
2026-04-30 14:46 -4.41021 106.53867 34974 ft 488 kts 167°
2026-04-30 14:47 -4.49514 106.55456 34619 ft 478 kts 167°
2026-04-30 14:47 -4.52809 106.56074 33857 ft 480 kts 167°
2026-04-30 14:47 -4.56058 106.56684 33046 ft 482 kts 167°
2026-04-30 14:48 -4.59344 106.57301 32398 ft 479 kts 167°
2026-04-30 14:48 -4.62582 106.57907 31909 ft 474 kts 167°
2026-04-30 14:48 -4.65825 106.58515 31438 ft 470 kts 167°
2026-04-30 14:48 -4.68989 106.59108 30985 ft 465 kts 167°
2026-04-30 14:49 -4.72151 106.59701 30537 ft 460 kts 167°
2026-04-30 14:49 -4.75231 106.60278 30105 ft 455 kts 167°
2026-04-30 14:49 -4.78333 106.60860 29673 ft 449 kts 167°
2026-04-30 14:49 -4.81368 106.61430 29250 ft 444 kts 167°
2026-04-30 14:50 -4.87384 106.61918 28950 ft 425 kts 185°
2026-04-30 14:50 -4.90236 106.61343 28697 ft 419 kts 192°
2026-04-30 14:51 -4.95758 106.59876 27846 ft 413 kts 193°
2026-04-30 14:51 -4.98585 106.59112 27479 ft 408 kts 193°
2026-04-30 14:51 -5.03953 106.57681 26819 ft 398 kts 193°
2026-04-30 14:52 -5.06614 106.56979 26491 ft 392 kts 193°
2026-04-30 14:52 -5.11823 106.55608 25850 ft 382 kts 192°
2026-04-30 14:52 -5.14374 106.54939 25533 ft 377 kts 193°
2026-04-30 14:53 -5.19391 106.53622 24910 ft 367 kts 192°
2026-04-30 14:53 -5.21841 106.52979 24603 ft 362 kts 192°
2026-04-30 14:54 -5.26648 106.51721 24001 ft 352 kts 193°
2026-04-30 14:54 -5.31308 106.50498 23412 ft 343 kts 193°
2026-04-30 14:55 -5.35843 106.49307 22835 ft 333 kts 192°
2026-04-30 14:55 -5.38070 106.48724 22550 ft 329 kts 192°
2026-04-30 14:55 -5.42418 106.47584 21991 ft 320 kts 192°
2026-04-30 14:56 -5.46659 106.46470 21441 ft 311 kts 192°
2026-04-30 14:56 -5.50779 106.45390 20877 ft 303 kts 192°
2026-04-30 14:57 -5.52799 106.44860 20551 ft 301 kts 192°
2026-04-30 14:57 -5.56828 106.43803 19877 ft 298 kts 192°
2026-04-30 14:58 -5.60811 106.42758 19256 ft 293 kts 192°
2026-04-30 14:58 -5.62756 106.42248 18949 ft 290 kts 192°
2026-04-30 14:58 -5.66626 106.41231 18275 ft 288 kts 192°
2026-04-30 14:59 -5.70489 106.40218 17599 ft 286 kts 192°
2026-04-30 15:00 -5.76065 106.38756 16669 ft 281 kts 192°
2026-04-30 15:00 -5.79804 106.37775 16045 ft 278 kts 192°
2026-04-30 15:01 -5.83523 106.36798 15363 ft 277 kts 192°
2026-04-30 15:01 -5.84778 106.36468 15139 ft 277 kts 193°
2026-04-30 15:01 -5.89109 106.35331 14252 ft 278 kts 193°
2026-04-30 15:02 -5.90986 106.34839 13764 ft 284 kts 193°
2026-04-30 15:02 -5.92915 106.34332 13266 ft 290 kts 193°
2026-04-30 15:03 -5.98937 106.32749 11533 ft 310 kts 194°
2026-04-30 15:03 -6.03154 106.31641 10287 ft 319 kts 192°
2026-04-30 15:04 -6.07560 106.31830 9035 ft 323 kts 169°
2026-04-30 15:04 -6.14128 106.33058 7451 ft 316 kts 169°
2026-04-30 15:05 -6.20219 106.34209 5569 ft 285 kts 158°
2026-04-30 15:06 -6.22696 106.36953 4463 ft 263 kts 115°
2026-04-30 15:06 -6.23696 106.40206 3881 ft 232 kts 82°
2026-04-30 15:07 -6.22826 106.42999 3856 ft 190 kts 67°
2026-04-30 15:07 -6.21814 106.45432 3705 ft 187 kts 67°
2026-04-30 15:08 -6.20830 106.47856 3476 ft 185 kts 68°
2026-04-30 15:08 -6.19454 106.51311 2763 ft 175 kts 68°
2026-04-30 15:09 -6.18592 106.53480 2308 ft 159 kts 68°
2026-04-30 15:09 -6.17790 106.55494 1906 ft 154 kts 69°
2026-04-30 15:10 -6.16995 106.57492 1512 ft 153 kts 69°
2026-04-30 15:11 -6.15401 106.61490 678 ft 155 kts 70°
2026-04-30 15:11 -6.14594 106.63480 305 ft 154 kts 69°
2026-04-30 15:12 -6.13590 106.66027 57 ft 61 kts 69°
2026-04-30 15:13 -6.13398 106.66511 57 ft 18 kts 64°
2026-04-30 15:14 -6.13143 106.66704 57 ft 7 kts 34°
2026-04-30 15:14 -6.13023 106.66972 57 ft 18 kts 68°
2026-04-30 15:16 -6.12599 106.67795 57 ft 27 kts 38°
2026-04-30 15:17 -6.11710 106.67606 82 ft 31 kts 338°
2026-04-30 15:18 -6.11149 106.67011 57 ft 22 kts 252°
2026-04-30 15:19 -6.11325 106.66908 57 ft 12 kts 158°